period_start,C,m1,H,J0,J1,J2,J3,J4,J5,JA,JB,JC,JD,JJ,JK,JN,#
2015-02-23 00:00:41,0.24,2.07,0.00,22.41,27.57,30.14,4.79,27.89,1022.93,2029.00,2642.07,2739.54,2969.65,349.18,349.66,10.84,0000 0000 0000 0000 000000
2015-02-23 00:05:42,0.23,2.08,0.00,22.45,27.59,30.14,4.86,27.88,1022.91,2029.00,2639.90,2737.83,2967.86,350.11,350.60,10.87,0000 0000 0000 0000 000000
2015-02-23 00:10:44,0.21,2.09,0.00,22.91,27.61,30.58,4.86,27.81,1022.96,2029.00,2637.77,2736.24,2966.08,350.18,350.23,10.90,0000 0000 0000 0000 000000
2015-02-23 00:15:45,0.24,2.10,0.00,23.06,27.62,30.73,4.86,27.68,1022.96,2029.00,2635.73,2734.56,2964.16,350.04,350.01,10.93,0000 0000 0000 0000 000000
2015-02-23 00:20:46,0.23,2.10,0.00,22.76,27.65,30.73,4.88,27.61,1022.96,2029.00,2633.66,2732.91,2962.38,350.56,350.78,10.96,0000 0000 0000 0000 000000
2015-02-23 00:25:47,0.21,2.11,0.00,22.62,27.65,30.70,4.84,27.54,1022.96,2028.99,2631.48,2731.36,2960.65,350.08,350.54,10.99,0000 0000 0000 0000 000000
2015-02-23 00:30:48,0.20,2.12,0.00,22.68,27.65,30.64,4.83,27.65,1022.96,2028.99,2629.48,2729.83,2959.13,350.24,350.33,11.02,0000 0000 0000 0000 000000
2015-02-23 00:35:50,0.21,2.12,0.00,22.53,27.62,30.42,4.81,27.88,1022.92,2028.99,2627.60,2728.46,2957.50,349.46,349.84,11.05,0000 0000 0000 0000 000000
2015-02-23 00:40:51,0.23,2.13,0.00,22.31,27.61,30.33,4.88,27.76,1022.95,2028.99,2625.47,2726.85,2955.87,350.75,351.47,11.08,0000 0000 0000 0000 000000
2015-02-23 00:45:52,0.19,2.13,0.00,22.20,27.60,30.21,4.90,27.77,1022.95,2029.00,2623.42,2725.41,2954.35,350.44,351.40,11.11,0000 0000 0000 0000 000000
2015-02-23 00:50:53,0.22,2.14,0.00,22.14,27.58,30.15,4.86,27.71,1022.96,2029.00,2621.68,2723.86,2952.68,350.51,351.33,11.13,0000 0000 0000 0000 000000
2015-02-23 00:55:55,0.22,2.15,0.00,22.14,27.57,30.16,4.90,27.88,1022.93,2029.00,2619.64,2722.36,2950.95,349.96,350.76,11.16,0000 0000 0000 0000 000000
2015-02-23 01:00:56,0.22,2.15,0.00,22.16,27.55,30.13,4.95,27.87,1022.93,2029.00,2617.44,2720.77,2949.38,350.58,351.54,11.19,0000 0000 0000 0000 000000
2015-02-23 01:05:57,0.23,2.16,0.00,22.14,27.55,30.05,4.84,27.83,1022.93,2029.00,2615.44,2719.18,2947.64,350.18,351.15,11.22,0000 0000 0000 0000 000000
2015-02-23 01:10:58,0.22,2.17,0.00,22.14,27.55,30.05,4.77,27.94,1022.95,2029.00,2613.29,2717.55,2945.98,349.51,350.35,11.25,0000 0000 0000 0000 000000
2015-02-23 01:16:00,0.23,2.17,0.00,22.22,27.55,30.09,4.98,27.99,1022.96,2029.00,2611.13,2715.86,2944.19,350.53,351.14,11.28,0000 0000 0000 0000 000000
2015-02-23 01:21:01,0.28,2.18,0.00,22.29,27.56,30.08,4.83,27.66,1022.96,2029.00,2608.62,2713.94,2942.18,350.07,350.82,11.31,0000 0000 0000 0000 000000
2015-02-23 01:26:02,0.28,2.19,0.00,22.33,27.57,30.18,4.88,27.80,1022.95,2029.00,2606.09,2712.00,2940.09,349.60,350.34,11.34,0000 0000 0000 0000 000000
2015-02-23 01:31:03,0.28,2.20,0.00,22.54,27.60,30.30,4.89,27.93,1022.96,2028.99,2603.60,2709.99,2937.85,350.28,350.55,11.37,0000 0000 0000 0000 000000
2015-02-23 01:36:05,0.28,2.21,0.00,23.09,27.62,30.67,4.88,27.72,1022.96,2028.98,2600.97,2708.01,2935.73,349.70,349.46,11.40,0000 0000 0000 0000 000000
2015-02-23 01:41:06,0.28,2.21,0.00,23.16,27.64,30.77,4.87,27.91,1022.96,2028.94,2598.28,2705.93,2933.61,350.29,350.06,11.43,0000 0000 0000 0000 000000
2015-02-23 01:46:07,0.24,2.22,0.00,22.81,27.66,30.80,4.87,27.51,1022.96,2028.93,2595.97,2704.13,2931.61,349.95,350.11,11.46,0000 0000 0000 0000 000000
2015-02-23 01:51:08,0.25,2.23,0.00,22.68,27.67,30.74,4.86,27.73,1022.96,2028.93,2593.61,2702.41,2929.67,350.06,350.40,11.49,0000 0000 0000 0000 000000
2015-02-23 01:56:10,0.27,2.24,0.00,22.77,27.67,30.66,4.81,27.86,1022.96,2028.96,2591.30,2700.57,2927.69,349.95,350.15,11.52,0000 0000 0000 0000 000000
2015-02-23 02:01:11,0.24,2.25,0.00,22.61,27.65,30.41,4.81,27.94,1022.96,2028.96,2588.98,2698.85,2925.80,349.28,349.47,11.54,0000 0000 0000 0000 000000
2015-02-23 02:06:13,0.25,2.25,0.00,22.37,27.65,30.33,4.79,27.85,1022.96,2028.98,2586.60,2697.16,2924.03,349.96,350.56,11.57,0000 0000 0000 0000 000000
2015-02-23 02:11:14,0.28,2.26,0.00,22.29,27.63,30.21,4.80,27.96,1022.96,2028.98,2584.11,2695.25,2922.01,349.31,350.00,11.60,0000 0000 0000 0000 000000
2015-02-23 02:16:16,0.27,2.27,0.00,22.28,27.62,30.23,4.89,27.82,1022.96,2028.98,2581.69,2693.34,2919.90,349.98,350.75,11.63,0000 0000 0000 0000 000000
2015-02-23 02:21:17,0.26,2.28,0.00,22.28,27.60,30.20,4.80,27.73,1022.92,2028.97,2579.33,2691.52,2917.82,350.07,350.70,11.66,0000 0000 0000 0000 000000
2015-02-23 02:26:18,0.26,2.28,0.00,22.31,27.60,30.24,4.84,27.86,1022.91,2028.97,2577.02,2689.73,2915.91,350.42,351.10,11.69,0000 0000 0000 0000 000000
2015-02-23 02:31:19,0.24,2.29,0.00,22.40,27.60,30.29,4.88,27.77,1022.94,2028.97,2574.74,2688.02,2914.13,350.73,351.41,11.72,0000 0000 0000 0000 000000
2015-02-23 02:36:21,0.23,2.30,0.00,22.40,27.60,30.22,4.84,27.98,1022.95,2028.96,2572.46,2686.42,2912.37,350.04,350.68,11.75,0000 0000 0000 0000 000000
2015-02-23 02:41:22,0.25,2.31,0.00,22.44,27.60,30.28,4.91,27.95,1022.96,2028.94,2570.25,2684.70,2910.50,349.64,350.30,11.78,0000 0000 0000 0000 000000
2015-02-23 02:46:23,0.22,2.31,0.00,22.91,27.62,30.53,4.82,27.90,1022.96,2028.95,2568.32,2683.16,2908.67,349.92,349.90,11.81,0000 0000 0000 0000 000000
2015-02-23 02:51:25,0.22,2.32,0.00,23.33,27.64,30.72,4.78,27.66,1022.96,2028.78,2566.15,2681.42,2906.81,349.66,348.97,11.84,0000 0000 0000 0000 000000
2015-02-23 02:56:26,0.22,2.32,0.00,23.10,27.65,30.80,4.97,27.68,1022.96,2028.56,2563.94,2679.75,2905.07,351.14,350.82,11.87,0000 0000 0000 0000 000000
2015-02-23 03:01:27,0.20,2.33,0.00,22.81,27.67,30.78,4.81,27.68,1022.96,2028.57,2561.71,2678.11,2903.37,350.02,350.40,11.90,0000 0000 0000 0000 000000
2015-02-23 03:06:29,0.27,2.34,0.00,22.82,27.67,30.71,4.83,27.68,1022.96,2028.77,2559.60,2676.58,2901.66,350.29,350.25,11.93,0000 0000 0000 0000 000000
2015-02-23 03:11:30,0.25,2.35,0.00,22.90,27.65,30.54,4.86,27.75,1022.96,2028.89,2557.67,2674.97,2900.02,350.10,349.96,11.95,0000 0000 0000 0000 000000
2015-02-23 03:16:31,0.23,2.35,0.00,22.66,27.65,30.40,4.87,27.98,1022.96,2028.98,2555.71,2673.54,2898.49,350.87,351.19,11.98,0000 0000 0000 0000 000000
2015-02-23 03:21:33,0.28,2.36,0.00,22.52,27.62,30.37,4.88,27.71,1022.82,2028.98,2553.38,2671.73,2896.44,350.19,350.63,12.01,0000 0000 0000 0000 000000
2015-02-23 03:26:34,0.33,2.37,0.00,22.45,27.62,30.32,4.82,27.74,1022.51,2028.98,2550.38,2669.48,2894.13,349.83,350.24,12.04,0000 0000 0000 0000 000000
2015-02-23 03:31:35,0.46,2.38,0.00,22.46,27.60,30.28,4.75,27.70,1022.61,2028.98,2546.49,2666.70,2891.14,349.30,349.66,12.07,0000 0000 0000 0000 000000
2015-02-23 03:36:36,0.36,2.40,0.00,22.43,27.60,30.21,4.86,27.60,1022.65,2028.97,2542.96,2664.03,2888.22,350.11,350.53,12.10,0000 0000 0000 0000 000000
2015-02-23 03:41:38,0.47,2.41,0.00,22.44,27.60,30.22,4.80,27.93,1022.60,2028.93,2538.74,2661.01,2884.97,349.80,350.10,12.13,0000 0000 0000 0000 000000
2015-02-23 03:46:39,0.46,2.42,0.00,22.48,27.61,30.22,4.84,27.85,1022.79,2028.91,2534.31,2657.90,2881.70,349.38,349.94,12.16,0000 0000 0000 0000 000000
2015-02-23 03:51:41,0.38,2.43,0.00,22.73,27.62,30.35,4.83,27.88,1022.76,2028.93,2530.59,2655.21,2879.00,350.36,350.88,12.19,0000 0000 0000 0000 000000
2015-02-23 03:56:42,0.29,2.44,0.00,23.29,27.64,30.67,4.85,27.82,1022.62,2028.83,2527.86,2653.04,2876.84,349.90,349.30,12.22,0000 0000 0000 0000 000000
2015-02-23 04:01:43,0.27,2.45,0.00,23.21,27.66,30.75,4.81,27.88,1022.60,2028.60,2525.04,2650.90,2874.46,349.94,349.44,12.25,0000 0000 0000 0000 000000
2015-02-23 04:06:45,0.28,2.46,0.00,22.91,27.67,30.81,4.90,27.80,1022.51,2028.28,2521.96,2648.65,2872.08,349.97,349.49,12.28,0000 0000 0000 0000 000000
2015-02-23 04:11:46,0.27,2.47,0.00,22.83,27.67,30.73,4.77,27.87,1022.52,2028.38,2519.47,2646.83,2870.20,349.60,349.64,12.31,0000 0000 0000 0000 000000
2015-02-23 04:16:47,0.27,2.48,0.00,22.93,27.67,30.57,4.85,27.89,1022.62,2028.47,2517.43,2645.22,2868.30,350.38,350.20,12.34,0000 0000 0000 0000 000000
2015-02-23 04:21:49,0.30,2.48,0.00,22.77,27.65,30.44,4.79,28.01,1022.58,2028.68,2515.27,2643.55,2866.51,349.42,349.41,12.36,0000 0000 0000 0000 000000
2015-02-23 04:26:50,0.30,2.49,0.00,22.55,27.65,30.35,4.84,28.13,1022.51,2028.91,2512.89,2641.73,2864.58,350.02,350.11,12.39,0000 0000 0000 0000 000000
2015-02-23 04:31:51,0.25,2.50,0.00,22.48,27.62,30.26,4.80,27.89,1022.50,2028.85,2510.53,2639.97,2862.65,349.76,350.03,12.42,0000 0000 0000 0000 000000
2015-02-23 04:36:52,0.26,2.51,0.00,22.45,27.62,30.16,4.90,27.84,1022.49,2028.82,2508.09,2638.09,2860.69,349.87,350.22,12.45,0000 0000 0000 0000 000000
2015-02-23 04:41:54,0.26,2.52,0.00,22.44,27.61,30.16,4.88,27.98,1022.50,2028.75,2505.72,2636.30,2858.78,349.99,350.42,12.48,0000 0000 0000 0000 000000
2015-02-23 04:46:55,0.25,2.52,0.00,22.50,27.61,30.19,4.81,27.73,1022.51,2028.75,2503.57,2634.62,2856.91,349.40,349.85,12.51,0000 0000 0000 0000 000000
2015-02-23 04:51:56,0.18,2.53,0.00,22.58,27.62,30.27,4.78,27.79,1022.77,2028.36,2501.28,2632.85,2854.93,349.86,349.95,12.54,0000 0000 0000 0000 000000
2015-02-23 04:56:57,0.29,2.54,0.00,23.21,27.62,30.58,4.77,27.80,1022.84,2028.15,2498.62,2630.79,2852.78,349.79,349.36,12.57,0000 0000 0000 0000 000000
2015-02-23 05:01:59,0.31,2.55,0.00,23.38,27.65,30.69,4.86,27.69,1022.90,2028.14,2495.95,2628.66,2850.49,350.41,349.83,12.60,0000 0000 0000 0000 000000
2015-02-23 05:07:00,0.35,2.56,0.00,23.06,27.66,30.77,4.81,27.65,1022.90,2028.04,2492.75,2626.29,2847.96,349.83,349.52,12.63,0000 0000 0000 0000 000000
2015-02-23 05:12:01,0.35,2.57,0.00,22.87,27.67,30.74,4.85,27.84,1022.87,2028.07,2489.58,2624.03,2845.58,350.18,350.34,12.66,0000 0000 0000 0000 000000
2015-02-23 05:17:02,0.30,2.58,0.00,22.95,27.66,30.65,4.83,27.98,1022.82,2028.14,2486.79,2622.15,2843.40,349.93,349.80,12.69,0000 0000 0000 0000 000000
2015-02-23 05:22:04,0.32,2.59,0.00,22.92,27.65,30.51,4.78,27.79,1022.88,2028.37,2484.49,2620.43,2841.54,349.64,349.73,12.72,0000 0000 0000 0000 000000
2015-02-23 05:27:06,0.33,2.60,0.00,22.67,27.63,30.37,4.87,27.83,1022.94,2028.85,2482.36,2618.77,2839.71,350.39,350.36,12.75,0000 0000 0000 0000 000000
2015-02-23 05:32:07,0.24,2.61,0.00,22.54,27.62,30.24,4.78,27.81,1022.96,2028.85,2480.22,2617.09,2837.81,349.34,349.61,12.77,0000 0000 0000 0000 000000
2015-02-23 05:37:08,0.35,2.61,0.00,22.74,27.61,30.42,4.84,27.71,1022.96,2028.85,2477.49,2615.06,2835.53,350.48,350.62,12.80,0000 0000 0000 0000 000000
2015-02-23 05:42:09,0.31,2.62,0.00,22.84,27.60,30.50,4.86,27.75,1022.96,2028.51,2473.99,2612.45,2832.86,350.15,350.09,12.83,0000 0000 0000 0000 000000
2015-02-23 05:47:10,0.33,2.63,0.00,23.15,27.60,30.52,4.84,27.91,1022.96,2028.72,2471.43,2610.48,2830.72,349.54,348.97,12.86,0000 0000 0000 0000 000000
2015-02-23 05:52:11,0.38,2.64,0.00,23.32,27.60,30.41,4.82,27.79,1022.96,2028.59,2468.30,2608.09,2828.16,350.55,350.12,12.89,0000 0000 0000 0000 000000
2015-02-23 05:57:13,0.71,2.66,0.00,23.42,27.61,30.30,4.84,27.82,1022.97,2028.41,2462.26,2603.64,2823.41,349.82,349.19,12.92,0000 0000 0000 0000 000000
2015-02-23 06:02:14,0.57,2.68,0.00,23.45,27.63,30.31,4.74,27.76,1023.00,2028.11,2456.32,2599.18,2818.70,349.51,348.90,12.95,0000 0000 0000 0000 000000
2015-02-23 06:07:15,0.75,2.70,0.00,23.19,27.66,30.38,4.87,27.80,1023.05,2028.03,2450.36,2594.79,2814.16,350.13,350.08,12.98,0000 0000 0000 0000 000000
2015-02-23 06:12:17,0.81,2.72,0.00,23.00,27.69,30.45,4.82,27.82,1023.16,2028.01,2443.33,2589.56,2808.68,350.40,350.03,13.01,0000 0000 0000 0000 000000
2015-02-23 06:17:18,0.55,2.74,0.00,22.96,27.73,30.52,4.82,27.89,1023.41,2028.00,2438.07,2585.56,2804.39,349.82,349.78,13.04,0000 0000 0000 0000 000000
2015-02-23 06:22:19,0.49,2.76,0.00,22.93,27.78,30.64,4.81,27.87,1023.44,2027.99,2433.79,2582.29,2800.97,350.14,350.18,13.07,0000 0000 0000 0000 000000
2015-02-23 06:27:20,0.38,2.77,0.23,23.29,27.83,30.75,4.79,27.81,1023.45,2027.94,2430.42,2579.59,2798.10,349.72,349.33,13.10,0000 0000 0000 0000 000000
2015-02-23 06:32:22,0.31,2.78,1.00,23.83,27.89,30.80,4.81,27.79,1023.45,2027.62,2427.24,2577.10,2795.36,349.67,348.77,13.13,0000 0000 0000 0000 000000
2015-02-23 06:37:23,0.35,2.79,1.00,23.52,27.94,31.10,4.79,27.71,1023.46,2027.09,2423.97,2574.50,2792.45,349.94,349.26,13.16,0000 0000 0000 0000 000000
2015-02-23 06:42:25,0.47,2.80,1.00,23.28,27.98,31.41,4.84,27.75,1023.47,2027.00,2419.87,2571.47,2789.25,349.90,349.65,13.18,0000 0000 0000 0000 000000
2015-02-23 06:47:25,0.44,2.82,1.00,23.32,28.00,31.26,4.83,27.77,1023.49,2027.00,2416.07,2568.67,2786.31,350.16,349.97,13.21,0000 0000 0000 0000 000000
2015-02-23 06:52:26,0.46,2.83,1.00,23.47,28.02,31.14,4.78,27.93,1023.47,2027.00,2412.19,2565.76,2783.18,349.58,349.10,13.24,0000 0000 0000 0000 000000
2015-02-23 06:57:28,0.49,2.84,0.77,23.70,28.02,31.14,4.87,27.79,1023.52,2027.00,2408.14,2562.76,2779.93,349.86,349.09,13.27,0000 0000 0000 0000 000000
2015-02-23 07:02:29,0.47,2.86,0.00,23.74,28.02,31.08,4.82,27.92,1023.57,2027.00,2404.09,2559.75,2776.68,349.86,348.94,13.30,0000 0000 0000 0000 000000
2015-02-23 07:07:30,0.45,2.87,0.00,23.77,28.02,31.04,4.85,27.84,1023.49,2027.00,2400.18,2557.00,2773.54,349.76,348.74,13.33,0000 0000 0000 0000 000000
2015-02-23 07:12:31,0.46,2.89,0.00,23.81,28.02,30.97,4.83,27.91,1023.46,2027.00,2396.40,2554.15,2770.46,349.29,348.67,13.36,0000 0000 0000 0000 000000
2015-02-23 07:17:33,0.45,2.90,0.00,23.79,28.00,30.93,4.83,27.73,1023.47,2027.00,2392.60,2551.37,2767.46,350.09,349.31,13.39,0000 0000 0000 0000 000000
2015-02-23 07:22:34,0.43,2.91,0.00,23.85,27.98,30.89,4.88,27.92,1023.47,2027.00,2388.84,2548.60,2764.57,350.02,348.91,13.42,0000 0000 0000 0000 000000
2015-02-23 07:27:35,0.45,2.92,0.00,23.83,27.96,30.85,4.80,27.83,1023.47,2027.00,2385.20,2545.86,2761.57,350.03,349.26,13.45,0000 0000 0000 0000 000000
2015-02-23 07:32:37,0.46,2.94,0.00,23.85,27.94,30.78,4.76,27.77,1023.47,2027.00,2381.26,2543.09,2758.60,350.27,349.33,13.48,0000 0000 0000 0000 000000
2015-02-23 07:37:38,0.41,2.95,0.00,23.87,27.91,30.75,4.79,27.88,1023.46,2027.00,2377.81,2540.35,2755.65,349.97,348.83,13.51,0000 0000 0000 0000 000000
2015-02-23 07:42:40,0.39,2.96,0.00,23.84,27.88,30.73,4.80,27.93,1023.46,2027.00,2374.66,2537.97,2752.97,350.30,349.31,13.54,0000 0000 0000 0000 000000
2015-02-23 07:47:41,0.35,2.97,0.00,23.80,27.86,30.70,4.82,28.02,1023.46,2027.00,2371.59,2535.76,2750.80,349.74,348.78,13.57,0000 0000 0000 0000 000000
2015-02-23 07:52:42,0.37,2.98,0.00,23.80,27.83,30.61,4.82,27.96,1023.46,2027.01,2368.47,2533.43,2748.39,350.21,349.28,13.59,0000 0000 0000 0000 000000
2015-02-23 07:57:43,0.36,2.99,0.00,23.74,27.80,30.61,4.80,27.94,1023.45,2027.02,2365.62,2531.26,2746.08,349.92,349.10,13.62,0000 0000 0000 0000 000000
2015-02-23 08:02:44,0.40,3.01,0.00,23.75,27.77,30.57,4.82,27.99,1023.45,2027.09,2362.51,2528.92,2743.65,349.81,349.05,13.65,0000 0000 0000 0000 000000
2015-02-23 08:07:45,0.39,3.02,0.00,23.74,27.75,30.55,4.85,27.93,1023.45,2027.28,2359.62,2526.71,2741.28,350.29,349.35,13.68,0000 0000 0000 0000 000000
2015-02-23 08:12:47,0.41,3.03,0.00,23.74,27.72,30.52,4.80,27.93,1023.45,2027.65,2356.93,2524.63,2738.98,349.85,348.95,13.71,0000 0000 0000 0000 000000
2015-02-23 08:17:48,0.36,3.04,0.00,23.76,27.70,30.47,4.81,27.80,1023.45,2027.92,2354.31,2522.65,2736.79,349.93,349.10,13.74,0000 0000 0000 0000 000000
2015-02-23 08:22:49,0.33,3.05,0.00,23.77,27.67,30.46,4.82,27.87,1023.45,2027.96,2351.65,2520.66,2734.75,349.80,349.16,13.77,0000 0000 0000 0000 000000
2015-02-23 08:27:51,0.32,3.06,0.00,23.71,27.65,30.49,4.82,27.96,1023.45,2027.97,2349.08,2518.69,2732.62,349.93,349.26,13.80,0000 0000 0000 0000 000000
2015-02-23 08:32:52,0.31,3.07,0.00,23.68,27.63,30.47,4.81,27.88,1023.45,2027.97,2346.43,2516.76,2730.66,349.80,348.94,13.83,0000 0000 0000 0000 000000
2015-02-23 08:37:53,0.30,3.08,0.00,23.64,27.61,30.49,4.77,27.92,1023.45,2027.99,2343.92,2514.94,2728.73,350.05,349.43,13.86,0000 0000 0000 0000 000000
2015-02-23 08:42:54,0.29,3.09,0.00,23.66,27.59,30.48,4.80,27.89,1023.45,2027.99,2341.56,2513.11,2726.73,349.68,348.97,13.89,0000 0000 0000 0000 000000
2015-02-23 08:47:55,0.26,3.10,0.00,23.63,27.57,30.42,4.79,27.82,1023.45,2027.99,2339.43,2511.48,2724.99,350.07,349.25,13.92,0000 0000 0000 0000 000000
2015-02-23 08:52:57,0.28,3.10,0.00,23.67,27.55,30.41,4.83,27.84,1023.45,2027.99,2337.27,2509.77,2723.14,350.44,349.85,13.95,0000 0000 0000 0000 000000
2015-02-23 08:57:58,0.27,3.11,0.00,23.63,27.54,30.39,4.79,27.77,1023.45,2027.99,2335.00,2508.12,2721.35,349.56,348.84,13.98,0000 0000 0000 0000 000000
2015-02-23 09:02:59,0.27,3.12,0.00,23.64,27.52,30.40,4.79,27.92,1023.45,2028.00,2332.91,2506.51,2719.58,349.78,349.18,14.00,0000 0000 0000 0000 000000
2015-02-23 09:08:01,0.28,3.13,0.00,23.62,27.51,30.40,4.87,28.00,1023.45,2028.02,2330.82,2504.81,2717.69,350.00,349.41,14.03,0000 0000 0000 0000 000000
2015-02-23 09:13:02,0.28,3.14,0.00,23.57,27.50,30.42,4.78,27.84,1023.45,2028.03,2328.50,2503.11,2715.89,350.06,349.41,14.06,0000 0000 0000 0000 000000
2015-02-23 09:18:04,0.26,3.15,0.00,23.57,27.49,30.41,4.86,27.94,1023.46,2028.05,2326.38,2501.48,2714.08,350.08,349.35,14.09,0000 0000 0000 0000 000000
2015-02-23 09:23:05,0.30,3.15,0.00,23.56,27.47,30.38,4.80,27.96,1023.46,2028.07,2324.20,2499.72,2712.26,349.83,349.18,14.12,0000 0000 0000 0000 000000
2015-02-23 09:28:06,0.27,3.16,0.00,23.55,27.47,30.37,4.81,27.96,1023.46,2028.09,2322.00,2498.06,2710.42,349.61,349.32,14.15,0000 0000 0000 0000 000000
2015-02-23 09:33:07,0.31,3.17,0.00,23.61,27.46,30.36,4.83,27.99,1023.47,2028.26,2319.79,2496.46,2708.70,350.26,349.58,14.18,0000 0000 0000 0000 000000
2015-02-23 09:38:09,0.26,3.18,0.00,23.54,27.45,30.37,4.81,27.95,1023.46,2028.19,2317.58,2494.84,2706.85,349.81,349.10,14.21,0000 0000 0000 0000 000000
2015-02-23 09:43:10,0.29,3.19,0.00,23.52,27.45,30.38,4.85,27.95,1023.45,2028.33,2315.42,2493.23,2705.01,349.69,349.04,14.24,0000 0000 0000 0000 000000
2015-02-23 09:48:11,0.27,3.20,0.00,23.53,27.44,30.37,4.76,27.89,1023.47,2028.37,2313.35,2491.59,2703.15,349.88,349.25,14.27,0000 0000 0000 0000 000000
2015-02-23 09:53:13,0.30,3.20,0.00,23.51,27.43,30.38,4.84,27.80,1023.47,2028.31,2311.11,2489.80,2701.34,350.49,349.89,14.30,0000 0000 0000 0000 000000
2015-02-23 09:58:14,0.30,3.21,0.00,23.53,27.42,30.40,4.78,27.88,1023.47,2028.45,2308.85,2488.15,2699.56,349.58,348.94,14.33,0000 0000 0000 0000 000000
2015-02-23 10:03:15,0.30,3.22,0.00,23.48,27.42,30.40,4.79,27.90,1023.47,2028.63,2306.76,2486.50,2697.73,349.73,349.33,14.36,0000 0000 0000 0000 000000
2015-02-23 10:08:17,0.24,3.23,0.00,23.49,27.42,30.40,4.78,28.03,1023.48,2028.54,2304.64,2484.79,2695.96,349.44,348.89,14.39,0000 0000 0000 0000 000000
2015-02-23 10:13:18,0.23,3.24,0.00,23.51,27.43,30.41,4.81,27.80,1023.48,2028.28,2302.65,2483.12,2694.13,350.42,349.85,14.41,0000 0000 0000 0000 000000
2015-02-23 10:18:19,0.27,3.25,0.00,23.47,27.43,30.42,4.80,27.87,1023.48,2028.33,2300.71,2481.57,2692.40,350.07,349.70,14.44,0000 0000 0000 0000 000000
2015-02-23 10:23:21,0.28,3.25,0.00,23.49,27.44,30.43,4.77,27.91,1023.49,2028.39,2298.63,2479.94,2690.64,349.86,349.28,14.47,0000 0000 0000 0000 000000
2015-02-23 10:28:22,0.25,3.26,0.00,23.46,27.45,30.42,4.86,27.81,1023.53,2028.39,2296.61,2478.41,2688.91,349.72,349.04,14.50,0000 0000 0000 0000 000000
2015-02-23 10:33:23,0.24,3.27,0.00,23.39,27.45,30.42,4.79,27.82,1023.50,2028.31,2294.52,2476.76,2687.28,349.58,348.98,14.53,0000 0000 0000 0000 000000
2015-02-23 10:38:24,0.24,3.28,0.00,23.41,27.45,30.44,4.81,27.84,1023.49,2028.20,2292.45,2475.16,2685.62,350.15,349.51,14.56,0000 0000 0000 0000 000000
2015-02-23 10:43:26,0.29,3.28,0.00,23.42,27.45,30.43,4.78,27.66,1023.48,2028.29,2290.42,2473.59,2683.87,349.70,349.25,14.59,0000 0000 0000 0000 000000
2015-02-23 10:48:26,0.24,3.29,0.00,23.42,27.45,30.45,4.85,27.90,1023.46,2028.19,2288.39,2471.93,2682.17,350.55,349.86,14.62,0000 0000 0000 0000 000000
2015-02-23 10:53:28,0.28,3.30,0.00,23.43,27.46,30.44,4.79,27.82,1023.48,2028.18,2286.25,2470.35,2680.49,350.30,349.82,14.65,0000 0000 0000 0000 000000
2015-02-23 10:58:29,0.27,3.31,0.00,23.45,27.47,30.45,4.82,28.03,1023.47,2028.27,2284.29,2468.79,2678.80,349.55,349.12,14.68,0000 0000 0000 0000 000000
2015-02-23 11:03:30,0.26,3.32,0.00,23.45,27.47,30.47,4.85,28.07,1023.48,2028.29,2282.18,2467.20,2677.11,349.56,349.07,14.71,0000 0000 0000 0000 000000
2015-02-23 11:08:32,0.29,3.32,0.00,23.41,27.47,30.48,4.77,27.99,1023.48,2028.35,2280.17,2465.58,2675.36,349.96,349.37,14.74,0000 0000 0000 0000 000000
2015-02-23 11:13:33,0.25,3.33,0.00,23.40,27.48,30.48,4.83,27.93,1023.46,2028.13,2278.05,2463.88,2673.51,349.70,349.27,14.77,0000 0000 0000 0000 000000
2015-02-23 11:18:34,0.27,3.34,0.00,23.32,27.50,30.48,4.86,28.00,1023.47,2028.06,2275.88,2462.10,2671.69,350.50,349.99,14.80,0000 0000 0000 0000 000000
2015-02-23 11:23:35,0.28,3.35,0.00,23.10,27.50,30.50,4.87,28.04,1023.47,2028.02,2273.83,2460.49,2669.87,350.02,349.62,14.83,0000 0000 0000 0000 000000
2015-02-23 11:28:36,0.28,3.36,0.00,22.68,27.50,30.40,4.87,27.96,1023.47,2028.01,2271.75,2458.80,2668.04,349.74,349.99,14.85,0000 0000 0000 0000 000000
2015-02-23 11:33:37,0.25,3.36,0.00,22.48,27.50,30.21,4.83,27.98,1023.46,2028.00,2269.61,2457.17,2666.25,350.37,351.01,14.88,0000 0000 0000 0000 000000
2015-02-23 11:38:39,0.29,3.37,0.00,22.32,27.51,30.07,4.81,27.86,1023.45,2028.00,2267.49,2455.50,2664.44,349.96,350.79,14.91,0000 0000 0000 0000 000000
2015-02-23 11:43:40,0.28,3.38,0.00,22.22,27.52,30.04,4.81,27.86,1023.45,2028.00,2265.36,2453.83,2662.57,349.61,350.63,14.94,0000 0000 0000 0000 000000
2015-02-23 11:48:41,0.26,3.39,0.00,22.18,27.52,30.04,4.88,28.05,1023.45,2028.00,2263.40,2452.29,2660.90,350.24,351.16,14.97,0000 0000 0000 0000 000000
2015-02-23 11:53:42,0.28,3.40,0.00,22.37,27.52,30.07,4.82,27.97,1023.45,2028.00,2261.35,2450.65,2659.08,349.69,350.47,15.00,0000 0000 0000 0000 000000
2015-02-23 11:58:43,0.27,3.41,0.00,23.10,27.52,30.38,4.82,27.80,1023.45,2027.99,2259.34,2448.99,2657.38,350.01,349.86,15.03,0000 0000 0000 0000 000000
2015-02-23 12:03:44,0.28,3.41,0.00,23.08,27.53,30.39,4.82,27.84,1023.45,2027.98,2257.16,2447.46,2655.73,349.92,349.81,15.06,0000 0000 0000 0000 000000
2015-02-23 12:08:46,0.25,3.42,0.00,23.18,27.52,30.43,4.83,27.95,1023.45,2027.99,2255.18,2445.88,2654.05,349.67,349.53,15.09,0000 0000 0000 0000 000000
2015-02-23 12:13:47,0.25,3.43,0.00,23.22,27.52,30.50,4.90,27.97,1023.45,2027.99,2253.32,2444.42,2652.39,350.20,349.87,15.12,0000 0000 0000 0000 000000
2015-02-23 12:18:48,0.27,3.44,0.00,23.10,27.52,30.49,4.82,27.80,1023.45,2027.99,2251.27,2442.87,2650.79,350.35,350.30,15.15,0000 0000 0000 0000 000000
2015-02-23 12:23:49,0.26,3.44,0.00,22.69,27.52,30.37,4.84,27.91,1023.45,2027.99,2249.21,2441.31,2649.10,350.18,350.53,15.18,0000 0000 0000 0000 000000
2015-02-23 12:28:51,0.28,3.45,0.00,22.38,27.52,30.07,4.84,27.91,1023.45,2027.99,2247.29,2439.73,2647.42,349.45,350.43,15.21,0000 0000 0000 0000 000000
2015-02-23 12:33:52,0.28,3.46,0.00,22.24,27.52,30.01,4.78,27.77,1023.45,2027.99,2245.24,2438.12,2645.58,349.12,350.16,15.23,0000 0000 0000 0000 000000
2015-02-23 12:38:53,0.28,3.47,0.00,22.19,27.50,30.01,4.83,28.13,1023.45,2027.99,2243.10,2436.48,2643.82,349.79,350.65,15.26,0000 0000 0000 0000 000000
2015-02-23 12:43:55,0.28,3.48,0.00,22.15,27.50,29.97,4.88,28.04,1023.45,2027.99,2240.99,2434.85,2642.08,349.80,350.74,15.29,0000 0000 0000 0000 000000
2015-02-23 12:48:56,0.26,3.49,0.00,22.14,27.50,29.92,4.85,27.98,1023.45,2027.99,2239.05,2433.27,2640.44,349.84,350.85,15.32,0000 0000 0000 0000 000000
2015-02-23 12:53:58,0.27,3.49,0.00,22.12,27.50,29.86,4.82,27.98,1023.41,2027.99,2237.09,2431.73,2638.71,350.10,351.03,15.35,0000 0000 0000 0000 000000
2015-02-23 12:58:59,0.27,3.50,0.00,22.74,27.50,30.22,4.93,27.93,1023.42,2027.99,2235.11,2430.18,2636.85,350.79,350.94,15.38,0000 0000 0000 0000 000000